Location: Pinhey's Point
(45.4411°N, 75.9539°W)
Time: 10:23:44
(UTC-04:00)

Iridium 65 - Visible Passes

Search period start: 23 September 2014 00:00
Search period end: 03 October 2014 00:00
Orbit: 776 x 779 km, 86.4° (Epoch: 22 September)

Date Brightness Start Highest point End Pass type
(mag) Time Alt. Az. Time Alt. Az. Time Alt. Az.
23 Sep 8.3 06:13:40 10° NNE 06:17:53 24° ENE 06:22:05 10° SE visible
23 Sep 8.0 20:54:07 10° SW 20:58:14 23° WNW 21:02:23 10° NNW visible
24 Sep 8.8 05:41:15 10° NE 05:43:59 14° ENE 05:46:43 10° ESE visible
24 Sep 7.0 20:19:35 10° SSW 20:24:28 40° W 20:29:23 10° N visible
25 Sep 5.9 19:45:39 10° S 19:50:50 72° W 19:56:03 10° N visible
26 Sep 7.6 06:13:26 10° NNE 06:18:09 34° ENE 06:22:50 10° SE visible
26 Sep 8.5 20:55:13 10° WSW 20:58:33 17° WNW 21:01:54 10° NNW visible
27 Sep 8.5 05:40:34 10° NNE 05:44:20 20° ENE 05:48:05 10° ESE visible
27 Sep 7.7 20:20:13 10° SW 20:24:42 29° WNW 20:29:13 10° NNW visible
28 Sep 9.0 05:08:49 10° NE 05:10:23 11° ENE 05:11:56 10° E visible
28 Sep 6.6 19:45:56 10° SSW 19:50:59 50° W 19:56:04 10° N visible
29 Sep 6.8 06:13:19 10° N 06:18:22 47° E 06:23:22 10° SSE visible
29 Sep 5.6 19:12:11 10° S 19:17:24 89° W 19:22:38 10° N visible
29 Sep 8.9 20:56:58 10° W 20:58:56 12° WNW 21:00:54 10° NW visible
30 Sep 7.9 05:40:12 10° NNE 05:44:38 27° ENE 05:49:01 10° SE visible
30 Sep 8.2 20:21:06 10° WSW 20:24:59 21° WNW 20:28:54 10° NNW visible
01 Oct 8.6 05:07:36 10° NNE 05:10:46 16° ENE 05:13:54 10° ESE visible
01 Oct 7.3 19:46:26 10° SW 19:51:11 36° W 19:55:59 10° NNW visible
02 Oct 6.0 06:13:19 10° N 06:18:31 67° E 06:23:42 10° SSE visible
02 Oct 6.2 19:12:22 10° SSW 19:17:31 63° W 19:22:42 10° N visible
